Location: ????
(30.2663°N, 31.2484°E)
Time: 16:49:10
(UTC+00:00)

CZ-2C R/B - Pass Details

Date: 02 April 2023
Orbit: 784 x 869 km, 98.3° (Epoch: 04 June)

Event Time Altitude Azimuth Distance (km) Brightness Sun altitude
Exits shadow 00:01:42 - 96° (E) 2,779 5.7 -44.3°
Reaches altitude 10° 00:03:34 10° 79° (E) 2,498 5.6 -44.0°
Maximum altitude 00:04:55 11° 65° (ENE) 2,431 5.6 -43.8°
Drops below altitude 10° 00:06:15 10° 50° (NE) 2,492 5.7 -43.6°
Sets 00:10:43 0° 16° (NNE) 3,413 6.5 -42.9°
